Powrót do katalogu

STARLINK-30275

AktywnyŁącznośćVLEO
NORAD 57667·PAYLOAD·🇺🇸 United States

Wystrzelony Aug 22, 2023 z Vandenberg Space Force Base

Loading…

Następne Przeloty (najbliższe 24 godziny)

TLE

ŚwieżeSource: CelesTrak SupGP

Epoka: Sep 14, 2026, 22:10 UTC

1 57667C 23124E   26257.92409722  .00035352  00000+0  10439-2 0  2573
2 57667  53.1604  45.4582 0001152  44.5368 228.9315 15.34391688    18

Śledź STARLINK-30275 w czasie rzeczywistym z AllMySat

Download on the App Store